Location: Pilipovskiye Korichintsy
(49.1833°N, 27.4667°E)
Time: 21:24:16
(UTC+00:00)

COBE Rocket - Pass Details

Date: 14 July 2020
Orbit: 679 x 783 km, 97.1° (Epoch: 10 August)

Event Time Altitude Azimuth Distance (km) Brightness Sun altitude
Exits shadow 00:44:23 - 173° (S) 2,492 6.2 -11.9°
Reaches altitude 10° 00:44:56 10° 174° (S) 2,275 6.0 -11.8°
Maximum altitude 00:49:57 72° 259° (W) 779 3.9 -11.3°
Drops below altitude 10° 00:54:50 10° 344° (NNW) 2,225 6.9 -10.9°
Sets 00:57:06 0° 346° (NNW) 3,134 7.8 -10.6°
